Location: Newark
(55.5030°N, 22.7200°E)
Time: 18:51:05
(UTC+00:00)

Transit 4A - Visible Passes

Search period start: 06 June 2020 00:00
Search period end: 16 June 2020 00:00
Orbit: 868 x 976 km, 66.8° (Epoch: 06 June)

Date Brightness Start Highest point End Pass type
(mag) Time Alt. Az. Time Alt. Az. Time Alt. Az.
06 Jun 8.8 22:01:50 15° SSE 22:05:43 31° ESE 22:10:51 10° NE visible
06 Jun 8.0 23:45:45 10° SW 23:51:38 76° NW 23:57:41 10° NE visible
07 Jun 8.4 22:10:27 15° S 22:14:50 41° ESE 22:20:24 10° NE visible
07 Jun 8.3 23:55:14 10° WSW 00:01:03 61° NW 00:07:03 10° NE visible
08 Jun 9.6 20:36:30 10° SE 20:38:57 13° ESE 20:41:25 10° ENE visible
08 Jun 8.0 22:19:01 13° SSW 22:24:01 55° ESE 22:29:52 10° NE visible
09 Jun 8.6 00:04:49 10° WSW 00:10:32 50° NNW 00:16:26 10° NE visible
09 Jun 9.3 20:44:03 10° SSE 20:47:53 18° ESE 20:51:47 10° ENE visible
09 Jun 7.8 22:27:30 10° SSW 22:33:16 73° SE 22:39:16 10° NE visible
10 Jun 9.0 00:14:29 10° W 00:20:04 42° NNW 00:25:50 10° NE visible
10 Jun 9.0 20:52:25 11° SSE 20:56:53 25° ESE 21:01:38 10° ENE visible
10 Jun 7.9 22:36:42 10° SW 22:42:35 88° NW 22:48:39 10° NE visible
11 Jun 9.3 00:24:12 10° W 00:29:40 37° NNW 00:35:17 10° NE visible
11 Jun 8.6 21:00:46 10° S 21:05:57 34° ESE 21:11:16 10° NE visible
11 Jun 8.1 22:46:06 10° SW 22:51:58 70° NW 22:58:02 10° NE visible
12 Jun 9.5 00:33:58 10° W 00:39:18 33° NNW 00:44:47 10° NE visible
12 Jun 8.2 21:09:33 10° S 21:15:05 46° ESE 21:20:47 10° NE visible
12 Jun 8.5 22:55:37 10° WSW 23:01:25 57° NW 23:07:24 10° NE visible
13 Jun 9.7 00:43:45 10° WNW 00:48:58 30° NNW 00:54:19 10° NE visible
13 Jun 7.9 21:18:33 10° SSW 21:24:18 61° SE 21:30:14 10° NE visible
13 Jun 8.9 23:05:14 10° WSW 23:10:55 47° NNW 23:16:47 10° NE visible
14 Jun 7.8 21:27:42 10° SW 21:33:35 80° SE 21:39:38 10° NE visible
14 Jun 9.2 23:14:56 10° W 23:20:29 40° NNW 23:26:12 10° NE visible
15 Jun 8.0 21:37:01 10° SW 21:42:55 81° NW 21:49:01 10° NE visible
15 Jun 9.5 23:24:40 10° W 23:30:05 35° NNW 23:35:40 10° NE visible
